カタログに戻る

SMIRENNIY L.N.

運用中ナビゲーションSSO
NORAD 57204·PAYLOAD·🇷🇺 Russia
この衛星名は、まだ公式ソースで確認されていません。

打ち上げ Jun 27, 2023 から Vostochny Cosmodrome

Loading…

次のパス (今後24時間)

TLE

最新Source: Space-Track

元期: Sep 14, 2026, 11:34 UTC

1 57204U 23091AQ  26257.48245750  .00016472  00000-0  39473-3 0  9999
2 57204  97.5008 330.5049 0007178 105.4576 254.7463 15.41470085178512

AllMySatでSMIRENNIY L.N.をリアルタイム追跡

Download on the App Store